Regional Weather Roundup
Issued by NWS State College, PA

Home | Current Version | Previous Version | Graphics & Text | Print | Product List | Glossary Off
Versions: 1 2 3 4 5 6 7 8 9 10 11 12 13 14 15 16 17 18 19 20 21 22 23 24 25 26 27 28 29 30 31 32 33 34 35 36 37 38 39 40 41 42 43 44 45 46 47 48 49 50

000
ASUS41 KCTP 301410
RWRCTP

REGIONAL WEATHER ROUNDUP
NATIONAL WEATHER SERVICE STATE COLLEGE PA
1000 AM EDT SAT MAY 30 2015

Note: "fair" indicates few or no clouds below 12,000 feet with no
significant weather and/or obstructions to visibility.

* = STATION THAT DOES NOT REPORT PRECIPITATION /E.G. RAIN...SNOW...ETC/
    THUNDER OR FOG.

PAZ002>004-007>009-013>016-020>023-029>032-301500-
WESTERN PENNSYLVANIA

CITY           SKY/WX    TMP DP  RH WIND       PRES   REMARKS
ERIE           MOSUNNY   78  65  63 SW10      30.05S
MEADVILLE      MOSUNNY   72  64  76 SW10      30.10S
FRANKLIN*      MOSUNNY   75  64  69 SW7       30.13F
NEW CASTLE     PTSUNNY   78  68  71 VRB3      30.11F
BEAVER COUNTY  SUNNY     75  64  69 SW9       30.13S
BUTLER*        MOSUNNY   75  64  69 S8        30.14S
PITTSBURGH INT PTSUNNY   76  64  66 SW9       30.12F
PITTSBURGH     MOSUNNY   76  61  59 S8        30.12F
INDIANA*       SUNNY     75  66  73 SW9       30.18F
LATROBE        MOSUNNY   75  64  69 SW16      30.17S
WASHINGTON CO* MOSUNNY   73  64  73 SW9       30.16F
$$

PAZ004>006-010>012-017>019-024>028-033>037-041-042-045-046-049>053-301500-
CENTRAL PENNSYLVANIA

CITY           SKY/WX    TMP DP  RH WIND       PRES   REMARKS
BRADFORD       MOSUNNY   72  63  73 S9        30.14F
DUBOIS         MOSUNNY   74  65  73 SW13      30.14F
CLEARFIELD     MOSUNNY   72  64  76 SW10      30.16S
JOHNSTOWN      PTSUNNY   72  62  71 SW7       30.19S
ALTOONA        PTSUNNY   76  64  66 SW8       30.18S
STATE COLLEGE  SUNNY     77  64  65 SW14      30.15F
WILLIAMSPORT   MOSUNNY   78  67  68 VRB6      30.12F
SELINSGROVE    MOSUNNY   78  66  66 VRB7      30.15F
FT INDIANTOWN  MOSUNNY   75  67  76 SE5       30.17F
CAPITAL CITY   MOSUNNY   77  67  71 S6        30.16F
HARRISBURG     MOSUNNY   78  67  68 SE5       30.16F
YORK           SUNNY     74  67  78 SW5       30.18S
$$

PAZ038>040-043-044-047-048-054-055-060>062-067>071-301500-
EASTERN PENNSYLVANIA

CITY           SKY/WX    TMP DP  RH WIND       PRES   REMARKS
SCRANTON       PTSUNNY   76  65  68 S8        30.16F
MOUNT POCONO   CLOUDY    70  63  78 SW9       30.22S
ALLENTOWN      PTSUNNY   76  66  71 VRB7      30.19F
QUAKERTOWN*    CLOUDY    72  66  83 SW3       30.21F
READING        MOSUNNY   80  66  62 S8        30.17F
LANCASTER      MOSUNNY   77  66  68 VRB5      30.18F
COATESVILLE    PTSUNNY   75  70  83 S5        30.21F
POTTSTOWN      CLOUDY    73  68  84 VRB5      30.21F
BLUE BELL      CLOUDY    77  68  73 SW6       30.20F
DOYLESTOWN     CLOUDY    73  32  22 VRB6      30.20F
WILLOW GROVE   NOT AVBL
NORTH PHILA    NOT AVBL
PHILADELPHIA   PTSUNNY   77  67  71 SW12      30.21S
$$


USA.gov is the U.S. government's official web portal to all federal, state and local government web resources and services.